一网星座-0025星 (ONEWEB-0025 )

导读

ONEWEB-0025是英国OneWeb卫星星座的组网卫星,于2020年2月6日在哈萨克斯坦拜科努尔航天发射场搭乘联盟号火箭发射,属于低地球轨道卫星,是OneWeb全球卫星互联网项目的组成部分。OneWeb项目旨在通过低轨卫星星座,为全球偏远地区提供高速互联网接入服务,ONEWEB-0025与同期发射的33颗卫星共同推动了项目初期的星座部署,助力全球网络覆盖建设。

Basic Information
目录编号:
45138
目录名称:
ONEWEB-0025
国际标识:
2020-008H
轨道中心:
EARTH
卫星名称:
一网星座-0025星
卫星全名:
一网星座-0025星 (ONEWEB-0025 )
卫星状态:
在轨 (已飞行2320 天)
发射日期:
2020-02-06 UTC
国别 :
英国 (GB)
星等 :
--
Orbit Information
数据来源 国际轨道数据 AOE轨道数据
星历时间 2026-06-14T00:25:55+0800
19小时前
查看轨道信息
2026-06-10T07:00:00+0800
4天前
查看轨道信息
半长轴 7599.844km 7599.851km
偏心率 0.0002208 0.0002208
轨道倾角 87.885° 87.884°
近地点辐角 92.015° 96.611°
升交点赤经 36.945° 37.687°
平近点角 268.123° 335.057°
近地点 1220.028km 1220.035km
远地点 1223.386km 1223.393km
周期 109.892分钟 109.892分钟
每日圈数 13.103757 13.103738
Detailed Information
平衡模式:
三轴稳定
覆盖范围:
全球
运营商:
一网卫星公司
运营商所在国:
英国
制造商(研发单位):
空客防务与航天公司
制造商所在国:
法国大都会
使用方式:
暂无
Satellite Introduction
OneWeb卫星网络由648颗重约125公斤的微型卫星组成,运行在1200公里的轨道上。 每颗卫星都能够提供至少每秒8千兆位的吞吐量,以使用其高吞吐量的Ku频段有效载荷为家庭和移动平台提供互联网接入。该卫星仍在工作。
2D Orbit Map
3D Orbit Map
Orbit Altitude Analysis Chart
Orbit Inclination Analysis Chart
Orbit Comprehensive Analysis Chart
View Comprehensive Chart